Regional Weather Roundup
Issued by NWS Charleston, SC

Current Version | Previous Version | Text Only | Print | Product List | Glossary On
Versions: 1 2 3 4 5 6 7 8 9 10 11 12 13 14 15 16 17 18 19 20 21 22 23 24 25 26 27 28 29 30 31 32 33 34 35 36 37 38 39 40 41 42 43 44 45 46 47 48 49 50
000
ASUS42 KCHS 251112
RWRCHS

REGIONAL WEATHER ROUNDUP
NATIONAL WEATHER SERVICE CHARLESTON SC
700 AM EDT TUE JUL 25 2017

NOTE: "FAIR" INDICATES FEW OR NO CLOUDS BELOW 12,000 FEET WITH NO
SIGNIFICANT WEATHER AND/OR OBSTRUCTIONS TO VISIBILITY.

NOT ALL STATIONS ARE QUALITY CONTROLLED. USE DATA WITH CAUTION...
ESPECIALLY DEWPOINT OBSERVATIONS.

SCZ027-030-031-034>040-042>050-251200-
...SOUTHEAST SOUTH CAROLINA...

CITY           SKY/WX    TMP DP  RH WIND       PRES   REMARKS
N CHARLESTON   PTCLDY    76  74  93 W6        30.05R
WATERFRONT PRK   N/A     78  76  94 VRB2      30.03R
JOHNS ISLAND   FAIR      77  75  94 CALM      30.05R
PINOPOLIS        N/A     75  75 100 SW6       29.97R
MONCKS CORNER  FAIR      72  72 100 CALM      30.05R FOG
SUMMERVILLE    FAIR      72  72 100 CALM      30.06R
BEAUFORT MCAS  MOCLDY    77  76  96 SW3       30.06R
BEAUFORT ARPT  CLOUDY    77  73  88 W3        30.05R
HILTON HEAD IS PTCLDY    75  73  94 SW6       30.06R
WALTERBORO     SUNNY     73  72  94 CALM      30.06R
ALLENDALE      NOT AVBL

...SOUTHERN MIDLANDS AND PEE DEE...

CITY           SKY/WX    TMP DP  RH WIND       PRES   REMARKS
GEORGETOWN     FAIR      72  72 100 CALM      30.06R
KINGSTREE      PTSUNNY   72  70  94 CALM      30.04R
ORANGEBURG     MOCLDY    72  71  97 S5        30.05R FOG
BARNWELL       FAIR      75  73  94 CALM      30.06R
AIKEN          NOT AVBL
MANNING        FAIR      72  72 100 MISG      30.05R
COLUMBIA       PTCLDY    75  71  87 W6        30.04R
SUMTER         CLEAR     74  71  91 CALM      30.02R
FLORENCE       CLEAR     73  73 100 W3        30.04R
MYRTLE BEACH   PTCLDY    73  75 100 SW6       30.05R
N MYRTLE BEACH CLEAR     74  74 100 SW3       30.03R

$$

GAZ063-065-086>088-099>101-113>116-118-119-134>141-150-251200-
...SOUTHEAST GEORGIA...

CITY           SKY/WX    TMP DP  RH WIND       PRES   REMARKS
SAVANNAH ARPT  MOCLDY    76  73  91 W3        30.07R
HUNTER AAF     MOCLDY    76  74  93 SW5       30.04R
FORT STEWART   PTCLDY    76  73  90 W5        30.05R
STATESBORO     CLOUDY    77  77 100 W3        30.06R
SYLVANIA       CLOUDY    76  76 100 CALM      30.07R FOG
CLAXTON        FAIR      76  75  95 SW3       30.06R

...CSRA...CENTRAL AND FAR SOUTHEAST GEORGIA...

CITY           SKY/WX    TMP DP  RH WIND       PRES   REMARKS
THOMSON        PTCLDY    72  70  95 CALM      30.11S
AUGUSTA-BUSH   CLOUDY    74  73  97 CALM      30.04R FOG
AUGUSTA-DANIEL MOCLDY    75  69  81 CALM      30.06R
SWAINSBORO     FAIR      73  73 100 CALM      30.08R
VIDALIA        CLOUDY    77  73  88 CALM      30.07S
EASTMAN        CLOUDY    76  76 100 CALM      30.10S
HAZLEHURST     FAIR      76  76 100 CALM      30.07R
ALMA           PTCLDY    76  74  93 SW5       30.07R
WAYCROSS       CLEAR     78  78 100 W5        30.08R
JESUP          NOT AVBL
BAXLEY         MOCLDY    77  77 100 CALM      30.08R
BRUNSWICK      MOCLDY    77  77 100 SW7       30.08R
SAINT SIMONS   MOCLDY    79  76  90 W6        30.07R

$$

SCZ027-028-034-036>038-045-046-048>050-GAZ119-141-251200-
...LAKE AND SUPPLEMENTAL COASTAL OBSERVATIONS...

STATION/POSITION TIME  TEMP    WIND        PRES    WAVE   SWELL
                       AIR SEA DIR/SP/G            HT/PER HT/PER/DIR
                 (UTC) (F)     (DEG/KT/KT) (MB)    (FT/S) (FT/S/D)
WINYAH BAY       NOT AVBL
LAKE MURRAY      NOT AVBL
ACE BASIN NERRS  0945   77        CALM     1017.0
FORT PULASKI     1048   77 85  260/  5/  7 1018.2R
SAPELO ISLAND    1000   79     230/ 10     1018.0

$$

ANZ835-935-AMZ111-154-330-350-352-354-370-450-454-472-251200-
...C-MAN AND BUOY OBSERVATIONS...

STATION/POSITION TIME  TEMP    WIND        PRES    WAVE   SWELL
                       AIR SEA DIR/SP/G            HT/PER HT/PER/DIR
                 (UTC) (F)     (DEG/KT/KT) (MB)    (FT/S) (FT/S/D)
BUOY 41004       1050   81 81  240/ 14/ 17 1017.0R   4/ 6   2/100/10
BUOY 41008       1050   80 80  240/ 16/ 17 1017.6R   3/ 4   2/ 90/ 8
FOLLY BEACH CMAN 1000   77     240/  2/  3 1017.3R
CAPERS NEARSHORE 1008   79 84  270/ 10/ 12 1016.7R
FRIPP NEARSHORE  1008   81 84  270/ 12/ 16 1016.9R


STATION/POSITION TIME  TEMP    WIND        PRES    WAVE   SWELL
                       AIR SEA DIR/SP/G            HT/PER HT/PER/DIR
                 (UTC) (F)     (DEG/KT/KT) (MB)    (FT/S) (FT/S/D)
5E ST. MARYS GA  1030      76                N/A     2/ 8
FRYING PAN BUOY  1050   81 81  240/ 12/ 14 1017.0R   4/ 6   3/200/ 6
BUOY 41025       1050   81 84  260/ 17/ 21 1015.2F   5/ 7   2/180/ 9
CAPE LOOKOUT NC  1000   79     270/ 11/ 13 1016.0R
BUOY 41002       0950   83 83  210/ 16/ 17 1018.9    5/ 6   2/100/11
BUOY 41010       1050   84 84  190/ 10/ 12 1019.4R   3/ 9   2/120/ 9
ST AUGUSTINE FL  1100   76 74  220/  3/  4 1019.5R


$$




USA.gov is the U.S. government's official web portal to all federal, state and local government web resources and services.